| time (UTC) | temp F | wind direction | speed MPH | gust MPH | rain 1hr in | rain 24hr in | rain mn in | humidity % | barometer mb |
| 20260508234305 | 68 | 191 | 1.0 | 2.0 | 0.15 | 2.98 | 2.98 | 100 | 1010.9 |
| 20260508233759 | 68 | 213 | 0.0 | 2.0 | 0.15 | 2.98 | 2.98 | 100 | 1010.8 |
| 20260508233253 | 68 | 149 | 0.0 | 2.0 | 0.15 | 2.98 | 2.98 | 100 | 1011.1 |
| 20260508232747 | 68 | 193 | 0.0 | 2.0 | 0.15 | 2.98 | 2.98 | 100 | 1010.9 |
| 20260508232241 | 68 | 183 | 0.0 | 2.0 | 0.15 | 2.98 | 2.98 | 100 | 1011.1 |
| 20260508231735 | 68 | 176 | 0.0 | 3.0 | 0.14 | 2.97 | 2.97 | 100 | 1010.9 |
| 20260508231229 | 68 | 246 | 0.0 | 3.0 | 0.12 | 2.95 | 2.96 | 100 | 1010.9 |
| 20260508230723 | 68 | 141 | 0.0 | 2.0 | 0.08 | 2.91 | 2.91 | 100 | 1010.9 |
| 20260508230217 | 68 | 182 | 2.0 | 7.0 | 0.08 | 2.91 | 2.91 | 100 | 1011.2 |
| 20260508225711 | 68 | 279 | 3.0 | 7.0 | 0.06 | 2.89 | 2.89 | 100 | 1010.9 |
| 20260508225204 | 68 | 274 | 2.0 | 5.0 | 0.04 | 2.87 | 2.88 | 100 | 1010.8 |
| 20260508224659 | 68 | 261 | 1.0 | 3.0 | 0.00 | 2.83 | 2.83 | 100 | 1011.2 |
| 20260508224153 | 68 | 253 | 0.0 | 2.0 | 0.01 | 2.83 | 2.83 | 100 | 1011.3 |
| 20260508223647 | 68 | 253 | 0.0 | 1.0 | 0.04 | 2.83 | 2.83 | 100 | 1011.3 |
| 20260508223141 | 68 | 253 | 0.0 | 1.0 | 0.05 | 2.83 | 2.83 | 100 | 1011.4 |
| 20260508222635 | 68 | 253 | 0.0 | 1.0 | 0.06 | 2.83 | 2.83 | 100 | 1011.3 |
| 20260508222129 | 68 | 253 | 0.0 | 0.0 | 0.07 | 2.83 | 2.83 | 100 | 1011.4 |
| 20260508221623 | 68 | 253 | 0.0 | 0.0 | 0.08 | 2.83 | 2.83 | 100 | 1011.3 |
| 20260508221603 | 68 | 253 | 1.0 | 3.0 | 0.10 | 2.83 | 2.83 | 100 | 1011.2 |
| 20260508220833 | 68 | 253 | 2.0 | 3.0 | 0.10 | 2.83 | 2.83 | 100 | 1011.3 |
| 20260508220105 | 68 | 267 | 2.0 | 3.0 | 0.11 | 2.83 | 2.83 | 100 | 1011.2 |
| 20260508215558 | 68 | 246 | 1.0 | 3.0 | 0.13 | 2.83 | 2.83 | 100 | 1011.5 |
| 20260508215052 | 68 | 274 | 2.0 | 4.0 | 0.15 | 2.83 | 2.83 | 100 | 1011.5 |
| 20260508214547 | 68 | 272 | 3.0 | 5.0 | 0.16 | 2.83 | 2.83 | 100 | 1011.6 |
| 20260508214041 | 68 | 301 | 3.0 | 5.0 | 0.14 | 2.81 | 2.82 | 100 | 1011.5 |
| 20260508213535 | 68 | 259 | 2.0 | 4.0 | 0.12 | 2.79 | 2.79 | 100 | 1011.8 |
| 20260508213304 | 68 | 309 | 2.0 | 4.0 | 0.11 | 2.78 | 2.78 | 100 | 1012.1 |
| 20260508212523 | 68 | 303 | 2.0 | 4.0 | 0.11 | 2.77 | 2.77 | 100 | 1012.1 |
| 20260508212234 | 68 | 40 | 2.0 | 3.0 | 0.11 | 2.76 | 2.76 | 100 | 1012.1 |
| 20260508211511 | 67 | 253 | 2.0 | 3.0 | 0.09 | 2.74 | 2.74 | 100 | 1012.0 |
| 20260508211006 | 67 | 52 | 3.0 | 7.0 | 0.09 | 2.73 | 2.73 | 100 | 1012.1 |
| 20260508210459 | 67 | 292 | 3.0 | 7.0 | 0.08 | 2.72 | 2.73 | 100 | 1011.8 |
| 20260508205953 | 67 | 281 | 2.0 | 5.0 | 0.07 | 2.71 | 2.71 | 100 | 1011.8 |
| 20260508205447 | 67 | 304 | 2.0 | 3.0 | 0.06 | 2.69 | 2.69 | 100 | 1012.0 |
| 20260508204941 | 67 | 41 | 2.0 | 5.0 | 0.05 | 2.68 | 2.68 | 100 | 1012.0 |
| 20260508204435 | 67 | 266 | 2.0 | 5.0 | 0.04 | 2.67 | 2.67 | 100 | 1011.9 |
| 20260508203929 | 67 | 75 | 3.0 | 6.0 | 0.04 | 2.67 | 2.67 | 100 | 1011.8 |
| 20260508203645 | 67 | 289 | 4.0 | 7.0 | 0.05 | 2.67 | 2.67 | 100 | 1011.6 |
| 20260508202917 | 67 | 289 | 4.0 | 7.0 | 0.05 | 2.66 | 2.66 | 100 | 1011.5 |
| 20260508202411 | 67 | 284 | 3.0 | 6.0 | 0.07 | 2.66 | 2.66 | 100 | 1011.3 |
| 20260508201905 | 67 | 274 | 2.0 | 6.0 | 0.10 | 2.65 | 2.65 | 100 | 1011.4 |
| 20260508201359 | 66 | 267 | 1.0 | 5.0 | 0.14 | 2.65 | 2.65 | 100 | 1011.4 |
| 20260508200852 | 66 | 187 | 1.0 | 4.0 | 0.17 | 2.64 | 2.64 | 100 | 1011.3 |
| 20260508200347 | 66 | 128 | 1.0 | 5.0 | 0.21 | 2.64 | 2.64 | 100 | 1011.4 |
| 20260508195842 | 66 | 265 | 1.0 | 6.0 | 0.25 | 2.64 | 2.64 | 100 | 1011.5 |
| 20260508195335 | 66 | 262 | 2.0 | 6.0 | 0.27 | 2.63 | 2.63 | 100 | 1011.5 |
| 20260508194830 | 66 | 59 | 4.0 | 11.0 | 0.28 | 2.63 | 2.63 | 100 | 1011.2 |
| 20260508194330 | 66 | 263 | 3.0 | 11.0 | 0.30 | 2.63 | 2.63 | 100 | 1011.4 |
| 20260508193831 | 66 | 236 | 2.0 | 6.0 | 0.30 | 2.63 | 2.63 | 99 | 1011.7 |
| 20260508193328 | 66 | 262 | 2.0 | 6.0 | 0.48 | 2.62 | 2.62 | 100 | 1012.5 |
| 20260508192827 | 66 | 279 | 1.0 | 5.0 | 0.63 | 2.61 | 2.61 | 100 | 1013.3 |
| 20260508192329 | 66 | 323 | 0.0 | 4.0 | 0.81 | 2.59 | 2.59 | 100 | 1013.4 |
| 20260508191827 | 66 | 120 | 0.0 | 1.0 | 1.01 | 2.54 | 2.54 | 99 | 1013.9 |
| 20260508191325 | 66 | 112 | 0.0 | 5.0 | 1.26 | 2.51 | 2.52 | 99 | 1014.0 |
| 20260508190826 | 66 | 112 | 1.0 | 5.0 | 1.37 | 2.47 | 2.47 | 99 | 1014.1 |
| 20260508190323 | 66 | 130 | 1.0 | 5.0 | 1.35 | 2.43 | 2.43 | 99 | 1013.8 |
| 20260508185824 | 66 | 128 | 1.0 | 5.0 | 1.31 | 2.39 | 2.40 | 99 | 1013.4 |
| 20260508185324 | 66 | 138 | 0.0 | 4.0 | 1.30 | 2.36 | 2.37 | 99 | 1013.8 |
| 20260508184825 | 66 | 151 | 0.0 | 2.0 | 1.29 | 2.34 | 2.35 | 99 | 1013.7 |
| 20260508184324 | 66 | 151 | 1.0 | 7.0 | 1.30 | 2.33 | 2.34 | 99 | 1013.4 |
| 20260508183824 | 66 | 113 | 1.0 | 7.0 | 1.32 | 2.33 | 2.33 | 99 | 1013.0 |
| 20260508183324 | 66 | 265 | 2.0 | 7.0 | 1.20 | 2.14 | 2.17 | 99 | 1012.8 |
| 20260508182825 | 66 | 264 | 2.0 | 7.0 | 1.10 | 1.98 | 1.98 | 99 | 1013.1 |
| 20260508182550 | 66 | 177 | 2.0 | 7.0 | 0.92 | 1.78 | 1.80 | 99 | 1013.8 |
| 20260508181823 | 66 | 171 | 3.0 | 9.0 | 0.66 | 1.47 | 1.53 | 99 | 1013.6 |
| 20260508181323 | 65 | 191 | 4.0 | 9.0 | 0.60 | 1.25 | 1.25 | 99 | 1013.1 |
| 20260508181050 | 65 | 103 | 3.0 | 9.0 | 0.58 | 1.10 | 1.11 | 98 | 1013.5 |
| 20260508180325 | 66 | 100 | 2.0 | 7.0 | 0.80 | 1.08 | 1.08 | 98 | 1012.8 |
| 20260508175824 | 66 | 87 | 1.0 | 6.0 | 0.90 | 1.08 | 1.08 | 98 | 1012.6 |
| 20260508175323 | 66 | 142 | 1.0 | 5.0 | 0.95 | 1.06 | 1.06 | 98 | 1012.5 |
| 20260508174823 | 67 | 141 | 0.0 | 3.0 | 1.03 | 1.05 | 1.05 | 99 | 1012.5 |
| 20260508174323 | 67 | 123 | 0.0 | 3.0 | 1.02 | 1.03 | 1.03 | 99 | 1012.8 |
| 20260508173824 | 67 | 147 | 0.0 | 3.0 | 1.01 | 1.01 | 1.01 | 99 | 1012.8 |
| 20260508173551 | 67 | 142 | 1.0 | 3.0 | 0.94 | 0.94 | 0.96 | 99 | 1013.3 |
| 20260508172821 | 67 | 128 | 1.0 | 3.0 | 0.88 | 0.88 | 0.89 | 99 | 1013.1 |
| 20260508172321 | 67 | 176 | 2.0 | 8.0 | 0.86 | 0.86 | 0.87 | 98 | 1012.7 |
| 20260508171819 | 67 | 309 | 3.0 | 8.0 | 0.81 | 0.81 | 0.82 | 99 | 1012.8 |
| 20260508171317 | 67 | 189 | 4.0 | 14.0 | 0.65 | 0.65 | 0.67 | 98 | 1012.4 |
| 20260508171037 | 67 | 48 | 5.0 | 14.0 | 0.52 | 0.52 | 0.52 | 98 | 1012.3 |
| 20260508170318 | 67 | 7 | 3.0 | 8.0 | 0.28 | 0.28 | 0.31 | 98 | 1012.3 |
| 20260508165817 | 67 | 79 | 3.0 | 11.0 | 0.18 | 0.18 | 0.19 | 97 | 1012.5 |
| 20260508165319 | 67 | 188 | 2.0 | 11.0 | 0.11 | 0.11 | 0.12 | 97 | 1012.5 |
| 20260508164811 | 67 | 118 | 2.0 | 11.0 | 0.02 | 0.02 | 0.02 | 96 | 1012.3 |
| 20260508164540 | 68 | 284 | 3.0 | 11.0 | 0.01 | 0.01 | 0.01 | 96 | 1011.6 |
| 20260508164031 | 68 | 130 | 2.0 | 7.0 | 0.00 | 0.00 | 0.00 | 95 | 1011.8 |
| 20260508163310 | 68 | 185 | 2.0 | 5.0 | 0.00 | 0.00 | 0.00 | 95 | 1012.0 |
| 20260508162810 | 69 | 226 | 2.0 | 6.0 | 0.00 | 0.00 | 0.00 | 94 | 1011.9 |
| 20260508162310 | 69 | 149 | 2.0 | 6.0 | 0.00 | 0.00 | 0.00 | 93 | 1012.2 |
| 20260508161811 | 70 | 204 | 2.0 | 6.0 | 0.00 | 0.00 | 0.00 | 92 | 1012.6 |
| 20260508161525 | 71 | 236 | 2.0 | 6.0 | 0.00 | 0.00 | 0.00 | 91 | 1012.3 |
| 20260508160807 | 72 | 194 | 2.0 | 6.0 | 0.00 | 0.00 | 0.00 | 91 | 1012.7 |
| 20260508160306 | 72 | 156 | 1.0 | 6.0 | 0.00 | 0.00 | 0.00 | 91 | 1012.6 |
| 20260508155806 | 73 | 227 | 1.0 | 2.0 | 0.00 | 0.00 | 0.00 | 90 | 1013.0 |
| 20260508155747 | 73 | 196 | 1.0 | 3.0 | 0.00 | 0.00 | 0.00 | 90 | 1013.0 |
| 20260508154806 | 73 | 123 | 1.0 | 4.0 | 0.00 | 0.00 | 0.00 | 90 | 1012.8 |
| 20260508154307 | 74 | 238 | 1.0 | 4.0 | 0.00 | 0.00 | 0.00 | 89 | 1012.9 |
| 20260508154026 | 74 | 131 | 1.0 | 4.0 | 0.00 | 0.00 | 0.00 | 89 | 1013.1 |
| 20260508153746 | 74 | 154 | 0.0 | 3.0 | 0.00 | 0.00 | 0.00 | 89 | 1013.2 |
| 20260508152802 | 74 | 177 | 0.0 | 2.0 | 0.00 | 0.00 | 0.00 | 90 | 1013.3 |
| 20260508152305 | 73 | 236 | 1.0 | 2.0 | 0.00 | 0.00 | 0.00 | 91 | 1013.6 |
| 20260508151803 | 73 | 236 | 0.0 | 2.0 | 0.00 | 0.00 | 0.00 | 90 | 1013.7 |
| 20260508151302 | 73 | 236 | 0.0 | 3.0 | 0.00 | 0.00 | 0.00 | 91 | 1013.7 |
| 20260508150800 | 73 | 240 | 1.0 | 4.0 | 0.00 | 0.00 | 0.00 | 91 | 1013.8 |
| 20260508150300 | 72 | 261 | 2.0 | 5.0 | 0.00 | 0.00 | 0.00 | 91 | 1013.7 |
| 20260508145759 | 72 | 341 | 3.0 | 5.0 | 0.00 | 0.00 | 0.00 | 91 | 1013.3 |
| 20260508145300 | 72 | 267 | 2.0 | 5.0 | 0.00 | 0.00 | 0.00 | 90 | 1013.5 |
| 20260508144758 | 73 | 307 | 1.0 | 4.0 | 0.00 | 0.00 | 0.00 | 88 | 1013.4 |
| 20260508144259 | 74 | 142 | 1.0 | 4.0 | 0.00 | 0.00 | 0.00 | 90 | 1013.2 |
| 20260508143759 | 74 | 201 | 0.0 | 2.0 | 0.00 | 0.00 | 0.00 | 89 | 1013.1 |
| 20260508143258 | 73 | 128 | 1.0 | 4.0 | 0.00 | 0.00 | 0.00 | 91 | 1013.2 |
| 20260508142756 | 73 | 130 | 1.0 | 4.0 | 0.00 | 0.00 | 0.00 | 90 | 1013.1 |
| 20260508142250 | 72 | 226 | 1.0 | 5.0 | 0.00 | 0.00 | 0.00 | 91 | 1013.1 |
| 20260508141744 | 71 | 153 | 1.0 | 5.0 | 0.00 | 0.00 | 0.00 | 91 | 1013.0 |
| 20260508141238 | 71 | 256 | 1.0 | 3.0 | 0.00 | 0.00 | 0.00 | 93 | 1013.5 |
| 20260508140732 | 70 | 188 | 1.0 | 3.0 | 0.00 | 0.00 | 0.00 | 94 | 1013.6 |
| 20260508140447 | 70 | 152 | 1.0 | 3.0 | 0.00 | 0.00 | 0.00 | 94 | 1013.5 |
| 20260508135720 | 69 | 134 | 2.0 | 7.0 | 0.00 | 0.00 | 0.00 | 95 | 1013.5 |
| 20260508135215 | 69 | 180 | 3.0 | 7.0 | 0.00 | 0.00 | 0.00 | 95 | 1013.4 |
| 20260508134708 | 69 | 279 | 2.0 | 7.0 | 0.00 | 0.00 | 0.00 | 97 | 1013.4 |
| 20260508134202 | 69 | 298 | 2.0 | 7.0 | 0.00 | 0.00 | 0.00 | 97 | 1013.2 |
| 20260508133655 | 68 | 312 | 2.0 | 5.0 | 0.00 | 0.00 | 0.00 | 97 | 1013.2 |
| 20260508133150 | 68 | 138 | 1.0 | 5.0 | 0.00 | 0.00 | 0.00 | 98 | 1013.2 |
| 20260508132643 | 68 | 231 | 1.0 | 4.0 | 0.00 | 0.00 | 0.00 | 98 | 1013.1 |
| 20260508132138 | 67 | 149 | 1.0 | 4.0 | 0.00 | 0.00 | 0.00 | 98 | 1013.1 |
| 20260508131631 | 67 | 275 | 1.0 | 4.0 | 0.00 | 0.00 | 0.00 | 98 | 1013.0 |
| 20260508131126 | 67 | 289 | 1.0 | 3.0 | 0.00 | 0.00 | 0.00 | 99 | 1013.1 |
| 20260508130847 | 67 | 225 | 1.0 | 4.0 | 0.00 | 0.00 | 0.00 | 99 | 1013.2 |
| 20260508130341 | 66 | 241 | 1.0 | 4.0 | 0.00 | 0.00 | 0.00 | 98 | 1013.2 |
| 20260508125608 | 66 | 264 | 0.0 | 3.0 | 0.00 | 0.00 | 0.00 | 98 | 1013.1 |
| 20260508125102 | 66 | 164 | 0.0 | 2.0 | 0.00 | 0.00 | 0.00 | 98 | 1013.3 |
| 20260508124556 | 66 | 189 | 0.0 | 2.0 | 0.00 | 0.00 | 0.00 | 98 | 1013.4 |
| 20260508124308 | 66 | 172 | 0.0 | 3.0 | 0.00 | 0.00 | 0.00 | 98 | 1013.5 |
| 20260508123802 | 66 | 173 | 0.0 | 3.0 | 0.00 | 0.00 | 0.00 | 98 | 1013.6 |
| 20260508123038 | 66 | 149 | 0.0 | 2.0 | 0.00 | 0.00 | 0.00 | 98 | 1013.4 |
| 20260508122758 | 66 | 164 | 0.0 | 2.0 | 0.00 | 0.00 | 0.00 | 98 | 1013.4 |
| 20260508122026 | 66 | 156 | 0.0 | 1.0 | 0.00 | 0.00 | 0.00 | 98 | 1013.6 |
| 20260508121520 | 66 | 156 | 0.0 | 1.0 | 0.00 | 0.00 | 0.00 | 98 | 1013.8 |
| 20260508121014 | 65 | 146 | 0.0 | 1.0 | 0.00 | 0.00 | 0.00 | 98 | 1014.0 |
| 20260508120507 | 65 | 146 | 0.0 | 2.0 | 0.00 | 0.00 | 0.00 | 98 | 1014.0 |
| 20260508120445 | 65 | 146 | 0.0 | 2.0 | 0.00 | 0.00 | 0.00 | 98 | 1013.9 |
| 20260508115456 | 65 | 167 | 0.0 | 1.0 | 0.00 | 0.00 | 0.00 | 98 | 1013.9 |
| 20260508114950 | 65 | 162 | 0.0 | 1.0 | 0.00 | 0.00 | 0.00 | 98 | 1013.9 |
| 20260508114444 | 65 | 157 | 0.0 | 2.0 | 0.00 | 0.00 | 0.00 | 98 | 1013.8 |
| 20260508113937 | 65 | 151 | 0.0 | 2.0 | 0.00 | 0.00 | 0.00 | 98 | 1013.9 |
| 20260508113432 | 65 | 149 | 0.0 | 1.0 | 0.00 | 0.00 | 0.00 | 98 | 1013.9 |
| 20260508112926 | 65 | 149 | 0.0 | 1.0 | 0.00 | 0.00 | 0.00 | 98 | 1013.7 |
| 20260508112646 | 65 | 160 | 0.0 | 1.0 | 0.00 | 0.00 | 0.00 | 98 | 1013.7 |
| 20260508111913 | 65 | 151 | 0.0 | 1.0 | 0.00 | 0.00 | 0.00 | 98 | 1013.7 |
| 20260508111408 | 65 | 149 | 0.0 | 1.0 | 0.00 | 0.00 | 0.00 | 98 | 1013.6 |
| 20260508110902 | 65 | 153 | 0.0 | 1.0 | 0.00 | 0.00 | 0.00 | 98 | 1013.5 |
| 20260508110356 | 65 | 154 | 0.0 | 1.0 | 0.00 | 0.00 | 0.00 | 98 | 1013.7 |
| 20260508105849 | 65 | 154 | 0.0 | 2.0 | 0.00 | 0.00 | 0.00 | 98 | 1013.8 |
| 20260508105344 | 65 | 154 | 1.0 | 3.0 | 0.00 | 0.00 | 0.00 | 97 | 1013.8 |
| 20260508104838 | 65 | 151 | 0.0 | 3.0 | 0.00 | 0.01 | 0.00 | 97 | 1013.5 |
| 20260508104332 | 65 | 149 | 0.0 | 1.0 | 0.00 | 0.01 | 0.00 | 97 | 1013.1 |
| 20260508103826 | 65 | 141 | 0.0 | 1.0 | 0.00 | 0.02 | 0.00 | 97 | 1013.0 |
| 20260508103320 | 65 | 155 | 0.0 | 1.0 | 0.00 | 0.02 | 0.00 | 97 | 1013.1 |
| 20260508102814 | 65 | 151 | 0.0 | 4.0 | 0.00 | 0.02 | 0.00 | 96 | 1013.3 |
| 20260508102308 | 65 | 148 | 0.0 | 4.0 | 0.00 | 0.02 | 0.00 | 96 | 1013.2 |
| 20260508101801 | 66 | 146 | 0.0 | 3.0 | 0.00 | 0.03 | 0.00 | 96 | 1013.3 |
| 20260508101256 | 66 | 146 | 0.0 | 3.0 | 0.00 | 0.03 | 0.00 | 95 | 1013.3 |
| 20260508100749 | 66 | 139 | 0.0 | 2.0 | 0.00 | 0.03 | 0.00 | 95 | 1013.2 |
| 20260508100244 | 66 | 148 | 0.0 | 2.0 | 0.00 | 0.03 | 0.00 | 95 | 1013.5 |
| 20260508095738 | 66 | 142 | 0.0 | 2.0 | 0.00 | 0.03 | 0.00 | 94 | 1013.5 |
| 20260508095232 | 67 | 154 | 0.0 | 2.0 | 0.00 | 0.03 | 0.00 | 94 | 1013.3 |
| 20260508094726 | 67 | 156 | 0.0 | 2.0 | 0.00 | 0.03 | 0.00 | 93 | 1013.4 |
| 20260508094220 | 67 | 147 | 0.0 | 1.0 | 0.00 | 0.03 | 0.00 | 93 | 1013.4 |
| 20260508093715 | 67 | 153 | 0.0 | 1.0 | 0.00 | 0.03 | 0.00 | 92 | 1013.3 |
| 20260508093429 | 67 | 154 | 0.0 | 2.0 | 0.00 | 0.03 | 0.00 | 92 | 1013.3 |
| 20260508092702 | 67 | 154 | 0.0 | 2.0 | 0.00 | 0.03 | 0.00 | 92 | 1013.3 |
| 20260508092156 | 67 | 145 | 0.0 | 0.0 | 0.00 | 0.03 | 0.00 | 92 | 1013.2 |
| 20260508091649 | 67 | 145 | 0.0 | 5.0 | 0.00 | 0.03 | 0.00 | 92 | 1013.0 |
| 20260508091144 | 67 | 145 | 1.0 | 5.0 | 0.00 | 0.03 | 0.00 | 92 | 1012.8 |
| 20260508090638 | 67 | 155 | 1.0 | 4.0 | 0.00 | 0.03 | 0.00 | 92 | 1012.4 |
| 20260508090132 | 67 | 129 | 0.0 | 3.0 | 0.00 | 0.03 | 0.00 | 92 | 1012.3 |
| 20260508085626 | 67 | 168 | 0.0 | 3.0 | 0.00 | 0.03 | 0.00 | 92 | 1012.6 |
| 20260508085602 | 67 | 146 | 0.0 | 2.0 | 0.00 | 0.03 | 0.00 | 91 | 1012.6 |
| 20260508085210 | 67 | 170 | 0.0 | 2.0 | 0.00 | 0.03 | 0.00 | 91 | 1012.5 |
| 20260508084108 | 67 | 167 | 0.0 | 2.0 | 0.00 | 0.04 | 0.00 | 90 | 1012.6 |
| 20260508083820 | 67 | 162 | 0.0 | 2.0 | 0.00 | 0.04 | 0.00 | 90 | 1012.7 |
| 20260508083056 | 67 | 163 | 0.0 | 3.0 | 0.00 | 0.05 | 0.00 | 90 | 1012.5 |
| 20260508082550 | 67 | 166 | 1.0 | 3.0 | 0.00 | 0.06 | 0.00 | 90 | 1012.6 |
| 20260508082044 | 67 | 170 | 0.0 | 3.0 | 0.00 | 0.06 | 0.00 | 90 | 1012.7 |
| 20260508081539 | 67 | 165 | 0.0 | 3.0 | 0.00 | 0.06 | 0.00 | 90 | 1012.7 |
| 20260508081038 | 67 | 206 | 1.0 | 3.0 | 0.00 | 0.06 | 0.00 | 90 | 1012.9 |
| 20260508080539 | 67 | 167 | 0.0 | 3.0 | 0.00 | 0.06 | 0.00 | 90 | 1012.7 |
| 20260508080303 | 67 | 169 | 0.0 | 3.0 | 0.00 | 0.06 | 0.00 | 90 | 1012.9 |
| 20260508075541 | 67 | 145 | 0.0 | 2.0 | 0.00 | 0.06 | 0.00 | 90 | 1013.0 |
| 20260508075041 | 67 | 140 | 0.0 | 1.0 | 0.00 | 0.06 | 0.00 | 90 | 1013.1 |
| 20260508074802 | 67 | 146 | 0.0 | 3.0 | 0.00 | 0.06 | 0.00 | 90 | 1013.1 |
| 20260508074038 | 67 | 149 | 0.0 | 3.0 | 0.00 | 0.06 | 0.00 | 89 | 1013.3 |
| 20260508073537 | 67 | 171 | 0.0 | 2.0 | 0.00 | 0.06 | 0.00 | 89 | 1013.4 |
| 20260508073038 | 67 | 148 | 0.0 | 2.0 | 0.00 | 0.06 | 0.00 | 90 | 1013.4 |
| 20260508072806 | 67 | 149 | 1.0 | 3.0 | 0.00 | 0.06 | 0.00 | 89 | 1013.3 |
| 20260508072036 | 67 | 146 | 1.0 | 3.0 | 0.00 | 0.06 | 0.00 | 89 | 1013.4 |
| 20260508071537 | 67 | 135 | 0.0 | 2.0 | 0.00 | 0.06 | 0.00 | 90 | 1013.4 |
| 20260508071239 | 67 | 141 | 0.0 | 1.0 | 0.00 | 0.06 | 0.00 | 90 | 1013.2 |
| 20260508071128 | 67 | 157 | 0.0 | 2.0 | 0.00 | 0.06 | 0.00 | 90 | 1013.2 |
| 20260508070300 | 67 | 140 | 0.0 | 3.0 | 0.00 | 0.06 | 0.00 | 90 | 1013.2 |
| 20260508065752 | 67 | 143 | 0.0 | 3.0 | 0.00 | 0.06 | 0.00 | 89 | 1013.3 |
| 20260508065036 | 67 | 142 | 1.0 | 2.0 | 0.00 | 0.06 | 0.00 | 90 | 1013.3 |
| 20260508064535 | 67 | 152 | 1.0 | 5.0 | 0.00 | 0.06 | 0.00 | 90 | 1013.2 |
| 20260508064035 | 67 | 164 | 0.0 | 5.0 | 0.00 | 0.06 | 0.00 | 90 | 1013.5 |
| 20260508063534 | 67 | 154 | 0.0 | 2.0 | 0.00 | 0.06 | 0.00 | 90 | 1013.5 |
| 20260508063035 | 67 | 154 | 0.0 | 4.0 | 0.00 | 0.06 | 0.00 | 90 | 1013.6 |
| 20260508062536 | 67 | 154 | 0.0 | 4.0 | 0.00 | 0.06 | 0.00 | 90 | 1013.7 |
| 20260508062034 | 67 | 142 | 0.0 | 2.0 | 0.00 | 0.06 | 0.00 | 90 | 1013.8 |
| 20260508061535 | 67 | 142 | 0.0 | 3.0 | 0.00 | 0.06 | 0.00 | 90 | 1013.9 |
| 20260508061035 | 67 | 139 | 0.0 | 3.0 | 0.00 | 0.06 | 0.00 | 91 | 1014.1 |
| 20260508060535 | 67 | 144 | 0.0 | 2.0 | 0.00 | 0.06 | 0.00 | 91 | 1014.1 |
| 20260508060034 | 67 | 148 | 0.0 | 2.0 | 0.00 | 0.06 | 0.00 | 91 | 1014.0 |
| 20260508055536 | 67 | 149 | 0.0 | 2.0 | 0.00 | 0.06 | 0.00 | 91 | 1014.0 |
| 20260508055035 | 67 | 141 | 0.0 | 2.0 | 0.00 | 0.06 | 0.00 | 91 | 1013.9 |
| 20260508054755 | 67 | 144 | 0.0 | 2.0 | 0.00 | 0.06 | 0.00 | 91 | 1013.9 |
| 20260508054035 | 67 | 153 | 0.0 | 2.0 | 0.00 | 0.06 | 0.00 | 91 | 1014.0 |
| 20260508053529 | 67 | 154 | 0.0 | 1.0 | 0.00 | 0.06 | 0.00 | 92 | 1014.0 |
| 20260508053022 | 67 | 161 | 0.0 | 1.0 | 0.00 | 0.06 | 0.00 | 91 | 1014.0 |
| 20260508052515 | 67 | 153 | 0.0 | 2.0 | 0.00 | 0.06 | 0.00 | 92 | 1013.8 |
| 20260508052009 | 67 | 141 | 0.0 | 2.0 | 0.00 | 0.06 | 0.00 | 91 | 1013.8 |
| 20260508051503 | 67 | 145 | 0.0 | 2.0 | 0.00 | 0.06 | 0.00 | 91 | 1013.9 |
| 20260508050958 | 67 | 151 | 0.0 | 3.0 | 0.00 | 0.06 | 0.00 | 92 | 1014.0 |
| 20260508050451 | 67 | 156 | 0.0 | 3.0 | 0.00 | 0.06 | 0.00 | 92 | 1014.1 |
| 20260508045946 | 67 | 146 | 0.0 | 3.0 | 0.00 | 0.06 | 0.06 | 92 | 1013.7 |
| 20260508045438 | 67 | 139 | 1.0 | 4.0 | 0.00 | 0.06 | 0.06 | 92 | 1013.8 |
| 20260508045152 | 67 | 170 | 1.0 | 4.0 | 0.00 | 0.06 | 0.06 | 91 | 1013.7 |
| 20260508044426 | 67 | 172 | 0.0 | 2.0 | 0.00 | 0.06 | 0.06 | 92 | 1013.7 |
| 20260508043920 | 67 | 146 | 0.0 | 2.0 | 0.00 | 0.06 | 0.06 | 91 | 1013.8 |
| 20260508043637 | 67 | 145 | 0.0 | 3.0 | 0.00 | 0.06 | 0.06 | 92 | 1013.9 |
| 20260508042908 | 67 | 158 | 0.0 | 3.0 | 0.00 | 0.06 | 0.06 | 92 | 1014.1 |
| 20260508042402 | 67 | 156 | 0.0 | 3.0 | 0.00 | 0.06 | 0.06 | 92 | 1014.1 |
| 20260508041856 | 67 | 150 | 0.0 | 3.0 | 0.00 | 0.06 | 0.06 | 92 | 1014.2 |
| 20260508041350 | 67 | 184 | 0.0 | 2.0 | 0.00 | 0.06 | 0.06 | 92 | 1014.5 |
| 20260508041109 | 67 | 151 | 0.0 | 2.0 | 0.00 | 0.06 | 0.06 | 92 | 1014.5 |
| 20260508040338 | 67 | 150 | 0.0 | 2.0 | 0.00 | 0.06 | 0.06 | 92 | 1014.4 |
| 20260508035832 | 67 | 156 | 0.0 | 1.0 | 0.00 | 0.06 | 0.06 | 92 | 1014.5 |
| 20260508035326 | 67 | 165 | 0.0 | 2.0 | 0.00 | 0.06 | 0.06 | 91 | 1014.4 |
| 20260508034820 | 67 | 161 | 0.0 | 2.0 | 0.00 | 0.06 | 0.06 | 91 | 1014.5 |
| 20260508034315 | 67 | 135 | 0.0 | 2.0 | 0.00 | 0.06 | 0.06 | 91 | 1014.5 |
| 20260508033814 | 67 | 172 | 0.0 | 3.0 | 0.00 | 0.06 | 0.06 | 91 | 1014.3 |
| 20260508033313 | 67 | 147 | 0.0 | 3.0 | 0.00 | 0.06 | 0.06 | 91 | 1014.4 |
| 20260508032813 | 67 | 159 | 0.0 | 3.0 | 0.00 | 0.06 | 0.06 | 91 | 1014.4 |
| 20260508032313 | 67 | 139 | 1.0 | 3.0 | 0.00 | 0.06 | 0.06 | 91 | 1014.4 |
| 20260508031810 | 68 | 146 | 0.0 | 3.0 | 0.00 | 0.06 | 0.06 | 91 | 1014.4 |
| 20260508031312 | 68 | 155 | 0.0 | 3.0 | 0.00 | 0.06 | 0.06 | 91 | 1014.4 |
| 20260508030809 | 68 | 151 | 0.0 | 3.0 | 0.00 | 0.06 | 0.06 | 90 | 1014.5 |
| 20260508030308 | 68 | 147 | 1.0 | 4.0 | 0.00 | 0.06 | 0.06 | 90 | 1014.4 |
| 20260508025809 | 68 | 147 | 0.0 | 4.0 | 0.00 | 0.06 | 0.06 | 90 | 1014.5 |
| 20260508025307 | 68 | 127 | 0.0 | 2.0 | 0.00 | 0.06 | 0.06 | 90 | 1014.4 |
| 20260508025251 | 68 | 149 | 0.0 | 2.0 | 0.00 | 0.06 | 0.06 | 90 | 1014.7 |
| 20260508024308 | 68 | 136 | 0.0 | 2.0 | 0.00 | 0.06 | 0.06 | 90 | 1014.7 |
| 20260508023807 | 68 | 146 | 0.0 | 2.0 | 0.00 | 0.06 | 0.06 | 90 | 1014.7 |
| 20260508023306 | 69 | 148 | 0.0 | 2.0 | 0.00 | 0.06 | 0.06 | 90 | 1014.5 |
| 20260508022807 | 69 | 140 | 0.0 | 2.0 | 0.00 | 0.06 | 0.06 | 89 | 1014.2 |
| 20260508022307 | 69 | 161 | 0.0 | 3.0 | 0.00 | 0.06 | 0.06 | 89 | 1014.3 |
| 20260508021802 | 69 | 151 | 0.0 | 3.0 | 0.00 | 0.06 | 0.06 | 89 | 1014.2 |
| 20260508021303 | 69 | 163 | 1.0 | 5.0 | 0.00 | 0.06 | 0.06 | 89 | 1014.2 |
| 20260508021027 | 69 | 155 | 1.0 | 5.0 | 0.00 | 0.06 | 0.06 | 89 | 1014.3 |
| 20260508020303 | 69 | 162 | 0.0 | 3.0 | 0.00 | 0.06 | 0.06 | 89 | 1014.3 |
| 20260508015803 | 69 | 146 | 1.0 | 5.0 | 0.00 | 0.06 | 0.06 | 89 | 1014.0 |
| 20260508015305 | 69 | 148 | 1.0 | 5.0 | 0.00 | 0.06 | 0.06 | 88 | 1014.0 |
| 20260508014803 | 69 | 150 | 0.0 | 4.0 | 0.00 | 0.06 | 0.06 | 88 | 1013.9 |
| 20260508014304 | 69 | 144 | 0.0 | 2.0 | 0.00 | 0.06 | 0.06 | 88 | 1013.8 |
| 20260508013803 | 70 | 136 | 1.0 | 3.0 | 0.00 | 0.06 | 0.06 | 88 | 1013.5 |
| 20260508013304 | 70 | 148 | 1.0 | 3.0 | 0.00 | 0.06 | 0.06 | 87 | 1013.5 |
| 20260508012804 | 70 | 138 | 1.0 | 3.0 | 0.00 | 0.06 | 0.06 | 87 | 1013.6 |
| 20260508012307 | 70 | 149 | 1.0 | 3.0 | 0.00 | 0.06 | 0.06 | 87 | 1013.6 |
| 20260508012034 | 71 | 142 | 1.0 | 4.0 | 0.00 | 0.06 | 0.06 | 86 | 1013.7 |
| 20260508011304 | 71 | 142 | 1.0 | 6.0 | 0.00 | 0.06 | 0.06 | 86 | 1013.7 |
| 20260508010802 | 71 | 139 | 1.0 | 6.0 | 0.00 | 0.06 | 0.06 | 86 | 1013.8 |
| 20260508010735 | 71 | 138 | 1.0 | 5.0 | 0.00 | 0.06 | 0.06 | 86 | 1013.6 |
| 20260508010358 | 71 | 141 | 1.0 | 5.0 | 0.00 | 0.06 | 0.06 | 86 | 1013.6 |
| 20260508005255 | 72 | 141 | 1.0 | 4.0 | 0.00 | 0.06 | 0.06 | 85 | 1013.4 |
| 20260508005010 | 72 | 137 | 1.0 | 3.0 | 0.00 | 0.06 | 0.06 | 85 | 1013.4 |
| 20260508004243 | 72 | 122 | 1.0 | 4.0 | 0.00 | 0.06 | 0.06 | 85 | 1013.3 |
| 20260508003737 | 73 | 142 | 0.0 | 4.0 | 0.00 | 0.06 | 0.06 | 85 | 1013.2 |
| 20260508003231 | 73 | 140 | 0.0 | 2.0 | 0.00 | 0.06 | 0.06 | 84 | 1013.2 |
| 20260508002725 | 73 | 149 | 1.0 | 4.0 | 0.00 | 0.06 | 0.06 | 84 | 1013.2 |
| 20260508002218 | 74 | 42 | 1.0 | 4.0 | 0.00 | 0.06 | 0.06 | 83 | 1013.1 |
| 20260508001713 | 74 | 42 | 0.0 | 3.0 | 0.00 | 0.06 | 0.06 | 83 | 1013.2 |
| 20260508001207 | 74 | 42 | 1.0 | 3.0 | 0.00 | 0.06 | 0.06 | 83 | 1013.0 |
| 20260508000929 | 75 | 42 | 1.0 | 3.0 | 0.00 | 0.06 | 0.06 | 82 | 1013.2 |
| 20260508000154 | 76 | 42 | 1.0 | 3.0 | 0.00 | 0.06 | 0.06 | 81 | 1013.0 |
| 20260507235649 | 76 | 42 | 1.0 | 2.0 | 0.00 | 0.06 | 0.06 | 81 | 1013.1 |
| 20260507235406 | 76 | 42 | 1.0 | 3.0 | 0.00 | 0.06 | 0.06 | 80 | 1013.1 |
| 20260507234637 | 77 | 42 | 1.0 | 3.0 | 0.00 | 0.06 | 0.06 | 79 | 1013.0 |